"SCET";"TARGET";"ELECTRON_DENSITY";"ERROR_FLAG";"ELECTRON_DENSITY_ERROR";"FREQ_FCE";"MEASURED_VALUE";"MEASURED_ITEM";"FREQ_PLASMA";"FREQ_UPPER_HYBRID";"FREQ_R_EQUALS_ZERO";"FREQ_L_EQUALS_ZERO";"ORBIT_NUMBER";"SATURN_RADIUS";"SATURN_IAU_LONGITUDE";"SATURN_SLS4_S_LONGITUDE";"SATURN_SLS4_N_LONGITUDE";"SATURN_SLS5_S_LONGITUDE";"SATURN_SLS5_N_LONGITUDE";"SATURN_LOCAL_TIME";"SATURN_KRONOGRAPHIC_LATITUDE";"SATURN_MAGNETIC_LATITUDE";"SATURN_L";"SATURN_L_OFFSET";"SATURN_SOLAR_EQUATORIAL_X";"SATURN_SOLAR_EQUATORIAL_Y";"SATURN_SOLAR_EQUATORIAL_Z";"SATURN_ALTITUDE";"ENCELADUS_ENCOUNTER_NUMBER";"ENCELADUS_RADIUS";"ENCELADUS_COROTATIONAL_X";"ENCELADUS_COROTATIONAL_Y";"ENCELADUS_COROTATIONAL_Z";"ENCELADUS_TRUE_ANOMALY";"ENCELADUS_PERIAPSIS_TIME";"JUPITER_RADIUS";"JUPITER_SYSTEMIII_LONGITUDE";"JUPITER_MAGNETIC_LATITUDE";"JUPITER_MAGNETIC_LOCAL_TIME";"JUPITER_L";"IO_PHASE";"EARTH_RADIUS";"EARTH_MAGNETIC_LATITUDE";"EARTH_LOCAL_TIME";"EARTH_L"
"[UTC]";"[0=Saturn, 1=Enceladus, 2=Jupiter, 3=Earth]";"[cm-3]";"[0=automated, 1=manual]";"[normalized density error]";"[Hz]";"[Hz]";"[0=upper hybrid frequency, 1=plasma frequency cutoff]";"[Hz]";"[Hz]";"[Hz]";"[Hz}";"[0, A, B, C, 3, 4, ... , 292, 293]";"[Rs where 1Rs=60268km]";"[degrees]";"[degrees]";"[degrees]";"[degrees]";"[degrees]";"[hours]";"[degrees]";"[degrees where offset=2293km north]";"[Rs where 1Rs=60268km]";"[Rs where 1Rs=60268km and offset=2293km north]";"[Rs where 1Rs=60268km]";"[Rs where 1Rs=60268km]";"[Rs where 1Rs=60268km]";"[km where ellipsoid a,b=60268km and c=54364km]";"[E0, E1, E2, ... , E21, E22]";"[Renc where 1Renc=252.1km]";"[Renc where 1Renc=252.1km]";"[Renc where 1Renc=252.1km]";"[Renc where 1Renc=252.1km]";"[degrees]";"[UTC]";"[Rj where 1Rj=71492km]";"[degrees]";"[degrees using JRM09 model]";"[hours using JRM09 model]";"[Rj where 1Rj=71492km]";"[degrees]";"[Re where 1Re=6378.1366km]";"[degrees]";"[hours]";"[Re where 1Re=6378.1366km]"
2009-07-11T01:02:19.265Z;0;8.1320e+00;0;     0.139;  3357.200;  25826.350; 0;  25607.217;  25826.350;  27340.775;  23983.576;114;   5.549;   1.265; 145.785; 156.858; 156.633; 170.247;   9.088; -10.731; -11.117;   5.749;   5.551;   3.943;  -3.765;  -1.033;;;;;;;;;;;;;;;;;;
2009-07-11T01:02:27.264Z;0;8.3000e+00;0;     0.143;  3357.200;  26088.377; 0;  25871.463;  26088.377;  27604.463;  24247.262;114;   5.550;   1.326; 145.846; 156.920; 156.694; 170.309;   9.089; -10.718; -11.104;   5.749;   5.551;   3.945;  -3.765;  -1.032;;;;;;;;;;;;;;;;;;
2009-07-11T01:02:35.264Z;0;8.1830e+00;0;     0.122;  3357.200;  25906.172; 0;  25687.721;  25906.172;  27421.107;  24063.906;114;   5.550;   1.387; 145.906; 156.981; 156.754; 170.371;   9.090; -10.705; -11.091;   5.748;   5.552;   3.946;  -3.764;  -1.031;;;;;;;;;;;;;;;;;;
2009-07-11T01:02:43.264Z;0;7.8480e+00;0;     0.134;  3357.200;  25379.355; 0;  25156.328;  25379.355;  26890.871;  23533.670;114;   5.550;   1.448; 145.967; 157.042; 156.815; 170.432;   9.091; -10.692; -11.078;   5.748;   5.552;   3.947;  -3.764;  -1.030;;;;;;;;;;;;;;;;;;
2009-07-11T01:02:51.264Z;0;7.9980e+00;0;     0.142;  3357.200;  25616.785; 0;  25395.844;  25616.785;  27129.859;  23772.658;114;   5.551;   1.509; 146.027; 157.103; 156.876; 170.494;   9.092; -10.680; -11.065;   5.748;   5.552;   3.949;  -3.763;  -1.028;;;;;;;;;;;;;;;;;;
2009-07-11T01:02:59.264Z;0;7.8220e+00;0;     0.083;  3357.200;  25337.930; 0;  25114.535;  25337.930;  26849.170;  23491.971;114;   5.551;   1.571; 146.088; 157.165; 156.937; 170.556;   9.093; -10.667; -11.052;   5.748;   5.553;   3.950;  -3.763;  -1.027;;;;;;;;;;;;;;;;;;
2009-07-11T01:03:07.264Z;0;7.8460e+00;0;     0.085;  3347.456;  25375.146; 0;  25153.381;  25375.146;  26882.734;  23535.277;114;   5.552;   1.632; 146.149; 157.226; 156.997; 170.618;   9.094; -10.654; -11.039;   5.748;   5.553;   3.951;  -3.762;  -1.026;;;;;;;;;;;;;;;;;;
2009-07-11T01:03:15.264Z;0;7.7850e+00;0;     0.113;  3347.456;  25277.682; 0;  25055.055;  25277.682;  26784.623;  23437.168;114;   5.552;   1.693; 146.209; 157.287; 157.058; 170.680;   9.095; -10.641; -11.026;   5.748;   5.553;   3.953;  -3.761;  -1.025;;;;;;;;;;;;;;;;;;
2009-07-11T01:03:23.264Z;0;7.8540e+00;0;     0.147;  3347.456;  25387.908; 0;  25166.256;  25387.908;  26895.580;  23548.123;114;   5.552;   1.754; 146.270; 157.349; 157.119; 170.742;   9.095; -10.628; -11.013;   5.748;   5.554;   3.954;  -3.761;  -1.024;;;;;;;;;;;;;;;;;;
2009-07-11T01:03:31.264Z;0;7.9440e+00;0;     0.128;  3347.456;  25530.973; 0;  25310.572;  25530.973;  27039.580;  23692.125;114;   5.553;   1.815; 146.331; 157.410; 157.180; 170.804;   9.096; -10.615; -11.000;   5.748;   5.554;   3.955;  -3.760;  -1.023;;;;;;;;;;;;;;;;;;
2009-07-11T01:03:39.264Z;0;8.2140e+00;0;     0.118;  3347.456;  25953.518; 0;  25736.736;  25953.518;  27464.830;  24117.375;114;   5.553;   1.877; 146.391; 157.471; 157.241; 170.866;   9.097; -10.602; -10.987;   5.747;   5.554;   3.957;  -3.760;  -1.021;;;;;;;;;;;;;;;;;;
2009-07-11T01:03:47.264Z;0;8.0890e+00;0;     0.105;  3347.456;  25758.566; 0;  25540.131;  25758.566;  27268.643;  23921.186;114;   5.553;   1.938; 146.452; 157.533; 157.302; 170.928;   9.098; -10.589; -10.974;   5.747;   5.555;   3.958;  -3.759;  -1.020;;;;;;;;;;;;;;;;;;
2009-07-11T01:03:55.264Z;0;8.1530e+00;0;     0.121;  3347.456;  25859.355; 0;  25641.779;  25859.355;  27370.074;  24022.617;114;   5.554;   1.999; 146.513; 157.594; 157.362; 170.990;   9.099; -10.576; -10.961;   5.747;   5.555;   3.959;  -3.759;  -1.019;;;;;;;;;;;;;;;;;;
2009-07-11T01:04:03.264Z;0;8.0420e+00;0;     0.110;  3338.272;  25683.711; 0;  25465.838;  25683.711;  27189.617;  23851.346;114;   5.554;   2.060; 146.573; 157.655; 157.423; 171.052;   9.100; -10.563; -10.948;   5.747;   5.555;   3.961;  -3.758;  -1.018;;;;;;;;;;;;;;;;;;
2009-07-11T01:04:11.264Z;0;8.0110e+00;0;     0.106;  3338.272;  25635.371; 0;  25417.084;  25635.371;  27140.967;  23802.695;114;   5.554;   2.121; 146.634; 157.717; 157.484; 171.114;   9.101; -10.550; -10.935;   5.747;   5.556;   3.962;  -3.758;  -1.017;;;;;;;;;;;;;;;;;;
2009-07-11T01:04:19.264Z;0;8.0150e+00;0;     0.113;  3338.272;  25641.004; 0;  25422.766;  25641.004;  27146.637;  23808.365;114;   5.555;   2.183; 146.695; 157.778; 157.545; 171.176;   9.102; -10.537; -10.922;   5.747;   5.556;   3.963;  -3.757;  -1.016;;;;;;;;;;;;;;;;;;
2009-07-11T01:04:27.264Z;0;7.8090e+00;0;     0.078;  3338.272;  25314.967; 0;  25093.893;  25314.967;  26818.480;  23480.207;114;   5.555;   2.244; 146.755; 157.839; 157.606; 171.238;   9.103; -10.524; -10.909;   5.747;   5.556;   3.965;  -3.756;  -1.014;;;;;;;;;;;;;;;;;;
2009-07-11T01:04:35.264Z;0;8.1870e+00;0;     0.125;  3338.272;  25909.604; 0;  25693.646;  25909.604;  27416.941;  24078.670;114;   5.555;   2.305; 146.816; 157.901; 157.666; 171.300;   9.104; -10.511; -10.896;   5.747;   5.557;   3.966;  -3.756;  -1.013;;;;;;;;;;;;;;;;;;
2009-07-11T01:04:43.264Z;0;8.0660e+00;0;     0.104;  3338.272;  25721.572; 0;  25504.023;  25721.572;  27227.721;  23889.449;114;   5.556;   2.366; 146.877; 157.962; 157.727; 171.362;   9.105; -10.498; -10.883;   5.747;   5.557;   3.967;  -3.755;  -1.012;;;;;;;;;;;;;;;;;;
2009-07-11T01:04:51.263Z;0;8.1210e+00;0;     0.111;  3338.272;  25807.480; 0;  25590.662;  25807.480;  27314.174;  23975.902;114;   5.556;   2.428; 146.937; 158.023; 157.788; 171.424;   9.106; -10.485; -10.870;   5.746;   5.558;   3.969;  -3.755;  -1.011;;;;;;;;;;;;;;;;;;
2009-07-11T01:04:59.263Z;0;8.1120e+00;0;     0.107;  3338.272;  25794.031; 0;  25577.100;  25794.031;  27300.641;  23962.367;114;   5.556;   2.489; 146.998; 158.085; 157.849; 171.486;   9.107; -10.472; -10.857;   5.746;   5.558;   3.970;  -3.754;  -1.010;;;;;;;;;;;;;;;;;;
2009-07-11T01:05:07.263Z;0;8.0700e+00;0;     0.100;  3328.836;  25726.693; 0;  25510.422;  25726.693;  27229.078;  23900.242;114;   5.557;   2.550; 147.059; 158.146; 157.910; 171.549;   9.107; -10.459; -10.844;   5.746;   5.558;   3.971;  -3.754;  -1.009;;;;;;;;;;;;;;;;;;
2009-07-11T01:05:15.263Z;0;8.0580e+00;0;     0.106;  3328.836;  25707.918; 0;  25491.486;  25707.918;  27210.184;  23881.348;114;   5.557;   2.611; 147.119; 158.208; 157.971; 171.611;   9.108; -10.446; -10.831;   5.746;   5.559;   3.973;  -3.753;  -1.007;;;;;;;;;;;;;;;;;;
2009-07-11T01:05:23.263Z;0;8.0180e+00;0;     0.103;  3328.836;  25644.100; 0;  25427.125;  25644.100;  27145.961;  23817.123;114;   5.558;   2.672; 147.180; 158.269; 158.032; 171.673;   9.109; -10.433; -10.819;   5.746;   5.559;   3.974;  -3.752;  -1.006;;;;;;;;;;;;;;;;;;
2009-07-11T01:05:31.263Z;0;8.0710e+00;0;     0.107;  3328.836;  25727.783; 0;  25511.521;  25727.783;  27230.176;  23901.340;114;   5.558;   2.734; 147.241; 158.330; 158.092; 171.735;   9.110; -10.420; -10.806;   5.746;   5.559;   3.975;  -3.752;  -1.005;;;;;;;;;;;;;;;;;;
2009-07-11T01:05:39.263Z;0;8.0720e+00;0;     0.105;  3328.836;  25728.896; 0;  25512.643;  25728.896;  27231.297;  23902.461;114;   5.558;   2.795; 147.301; 158.392; 158.153; 171.798;   9.111; -10.407; -10.793;   5.746;   5.560;   3.977;  -3.751;  -1.004;;;;;;;;;;;;;;;;;;
2009-07-11T01:05:47.263Z;0;8.0490e+00;0;     0.103;  3328.836;  25693.539; 0;  25476.986;  25693.539;  27195.715;  23866.879;114;   5.559;   2.856; 147.362; 158.453; 158.214; 171.860;   9.112; -10.394; -10.780;   5.746;   5.560;   3.978;  -3.751;  -1.003;;;;;;;;;;;;;;;;;;
2009-07-11T01:05:55.263Z;0;8.0200e+00;0;     0.105;  3328.836;  25647.713; 0;  25430.770;  25647.713;  27149.596;  23820.760;114;   5.559;   2.917; 147.423; 158.514; 158.275; 171.922;   9.113; -10.382; -10.767;   5.746;   5.560;   3.979;  -3.750;  -1.002;;;;;;;;;;;;;;;;;;
2009-07-11T01:06:03.263Z;0;8.0580e+00;0;     0.099;  3319.428;  25706.686; 0;  25491.471;  25706.686;  27205.158;  23885.730;114;   5.559;   2.979; 147.484; 158.576; 158.336; 171.984;   9.114; -10.369; -10.754;   5.745;   5.561;   3.980;  -3.750;  -1.000;;;;;;;;;;;;;;;;;;
2009-07-11T01:06:11.263Z;0;8.0950e+00;0;     0.101;  3319.428;  25764.316; 0;  25549.588;  25764.316;  27263.152;  23943.725;114;   5.560;   3.040; 147.544; 158.637; 158.397; 172.047;   9.115; -10.356; -10.741;   5.745;   5.561;   3.982;  -3.749;  -0.999;;;;;;;;;;;;;;;;;;
2009-07-11T01:06:19.263Z;0;8.0700e+00;0;     0.107;  3319.428;  25725.885; 0;  25510.832;  25725.885;  27224.479;  23905.051;114;   5.560;   3.101; 147.605; 158.699; 158.458; 172.109;   9.116; -10.343; -10.728;   5.745;   5.561;   3.983;  -3.749;  -0.998;;;;;;;;;;;;;;;;;;
2009-07-11T01:06:27.263Z;0;8.0570e+00;0;     0.103;  3319.428;  25705.447; 0;  25490.223;  25705.447;  27203.912;  23884.484;114;   5.560;   3.162; 147.666; 158.760; 158.518; 172.172;   9.117; -10.330; -10.715;   5.745;   5.562;   3.984;  -3.748;  -0.997;;;;;;;;;;;;;;;;;;
2009-07-11T01:06:35.263Z;0;8.1290e+00;0;     0.120;  3319.428;  25817.033; 0;  25602.746;  25817.033;  27316.199;  23996.771;114;   5.561;   3.224; 147.726; 158.821; 158.579; 172.234;   9.118; -10.317; -10.702;   5.745;   5.562;   3.986;  -3.747;  -0.996;;;;;;;;;;;;;;;;;;
2009-07-11T01:06:43.263Z;0;8.0100e+00;0;     0.107;  3319.428;  25630.967; 0;  25415.111;  25630.967;  27128.961;  23809.533;114;   5.561;   3.285; 147.787; 158.883; 158.640; 172.296;   9.118; -10.304; -10.689;   5.745;   5.562;   3.987;  -3.747;  -0.995;;;;;;;;;;;;;;;;;;
2009-07-11T01:06:51.263Z;0;8.0860e+00;0;     0.104;  3319.428;  25750.900; 0;  25536.059;  25750.900;  27249.652;  23930.225;114;   5.562;   3.346; 147.848; 158.944; 158.701; 172.359;   9.119; -10.291; -10.676;   5.745;   5.563;   3.988;  -3.746;  -0.993;;;;;;;;;;;;;;;;;;
2009-07-11T01:06:59.263Z;0;8.2020e+00;0;     0.118;  3319.428;  25932.014; 0;  25718.684;  25932.014;  27431.896;  24112.469;114;   5.562;   3.408; 147.909; 159.006; 158.762; 172.421;   9.120; -10.278; -10.663;   5.745;   5.563;   3.990;  -3.746;  -0.992;;;;;;;;;;;;;;;;;;
2009-07-11T01:07:07.263Z;0;8.2460e+00;0;     0.115;  3309.488;  25997.721; 0;  25786.213;  25997.721;  27493.996;  24184.508;114;   5.562;   3.469; 147.969; 159.067; 158.823; 172.484;   9.121; -10.265; -10.650;   5.745;   5.563;   3.991;  -3.745;  -0.991;;;;;;;;;;;;;;;;;;
2009-07-11T01:07:15.262Z;0;8.0910e+00;0;     0.105;  3309.488;  25756.375; 0;  25542.869;  25756.375;  27251.156;  23941.668;114;   5.563;   3.530; 148.030; 159.128; 158.884; 172.546;   9.122; -10.252; -10.637;   5.745;   5.564;   3.992;  -3.745;  -0.990;;;;;;;;;;;;;;;;;;
2009-07-11T01:07:23.262Z;0;8.1980e+00;0;     0.119;  3309.488;  25923.859; 0;  25711.744;  25923.859;  27419.680;  24110.193;114;   5.563;   3.591; 148.091; 159.190; 158.945; 172.609;   9.123; -10.239; -10.624;   5.744;   5.564;   3.994;  -3.744;  -0.989;;;;;;;;;;;;;;;;;;
2009-07-11T01:07:31.262Z;0;8.3390e+00;0;     0.119;  3309.488;  26142.223; 0;  25931.893;  26142.223;  27639.379;  24329.891;114;   5.563;   3.653; 148.152; 159.251; 159.006; 172.671;   9.124; -10.226; -10.611;   5.744;   5.565;   3.995;  -3.743;  -0.987;;;;;;;;;;;;;;;;;;
2009-07-11T01:07:39.262Z;0;8.3010e+00;0;     0.120;  3309.488;  26082.959; 0;  25872.148;  26082.959;  27579.756;  24270.268;114;   5.564;   3.714; 148.212; 159.313; 159.066; 172.734;   9.125; -10.213; -10.598;   5.744;   5.565;   3.996;  -3.743;  -0.986;;;;;;;;;;;;;;;;;;
2009-07-11T01:07:47.262Z;0;8.5040e+00;0;     0.090;  3309.488;  26396.160; 0;  26187.871;  26396.160;  27894.842;  24585.354;114;   5.564;   3.775; 148.273; 159.374; 159.127; 172.797;   9.126; -10.200; -10.585;   5.744;   5.565;   3.998;  -3.742;  -0.985;;;;;;;;;;;;;;;;;;
2009-07-11T01:07:55.262Z;0;8.4260e+00;0;     0.093;  3309.488;  26275.820; 0;  26066.568;  26275.820;  27773.783;  24464.295;114;   5.564;   3.837; 148.334; 159.435; 159.188; 172.859;   9.127; -10.187; -10.573;   5.744;   5.566;   3.999;  -3.742;  -0.984;;;;;;;;;;;;;;;;;;
2009-07-11T01:08:03.262Z;0;8.7380e+00;0;     0.121;  3300.276;  26749.213; 0;  26544.840;  26749.213;  28246.219;  24945.943;114;   5.565;   3.898; 148.395; 159.497; 159.249; 172.922;   9.128; -10.175; -10.560;   5.744;   5.566;   4.000;  -3.741;  -0.983;;;;;;;;;;;;;;;;;;
2009-07-11T01:08:11.262Z;0;8.7980e+00;0;     0.111;  3300.276;  26840.312; 0;  26636.639;  26840.312;  28337.842;  25037.564;114;   5.565;   3.959; 148.455; 159.558; 159.310; 172.985;   9.129; -10.162; -10.547;   5.744;   5.566;   4.002;  -3.741;  -0.982;;;;;;;;;;;;;;;;;;
2009-07-11T01:08:19.262Z;0;8.7470e+00;0;     0.139;  3300.276;  26762.701; 0;  26558.434;  26762.701;  28259.785;  24959.510;114;   5.565;   4.021; 148.516; 159.620; 159.371; 173.047;   9.130; -10.149; -10.534;   5.744;   5.567;   4.003;  -3.740;  -0.980;;;;;;;;;;;;;;;;;;
2009-07-11T01:08:27.262Z;0;8.5140e+00;0;     0.052;  3300.276;  26410.131; 0;  26203.113;  26410.131;  27905.160;  24604.883;114;   5.566;   4.082; 148.577; 159.681; 159.432; 173.110;   9.130; -10.136; -10.521;   5.744;   5.567;   4.004;  -3.740;  -0.979;;;;;;;;;;;;;;;;;;
2009-07-11T01:08:35.262Z;0;8.7890e+00;0;     0.106;  3300.276;  26826.016; 0;  26622.232;  26826.016;  28323.463;  25023.188;114;   5.566;   4.143; 148.638; 159.743; 159.493; 173.173;   9.131; -10.123; -10.508;   5.744;   5.567;   4.006;  -3.739;  -0.978;;;;;;;;;;;;;;;;;;
2009-07-11T01:08:43.262Z;0;8.9210e+00;0;     0.124;  3300.276;  27024.357; 0;  26822.082;  27024.357;  28522.932;  25222.656;114;   5.567;   4.204; 148.698; 159.804; 159.554; 173.235;   9.132; -10.110; -10.495;   5.744;   5.568;   4.007;  -3.738;  -0.977;;;;;;;;;;;;;;;;;;
2009-07-11T01:08:51.262Z;0;8.7510e+00;0;     0.115;  3300.276;  26769.514; 0;  26565.297;  26769.514;  28266.637;  24966.361;114;   5.567;   4.266; 148.759; 159.865; 159.615; 173.298;   9.133; -10.097; -10.482;   5.743;   5.568;   4.008;  -3.738;  -0.976;;;;;;;;;;;;;;;;;;
2009-07-11T01:08:59.262Z;0;8.7950e+00;0;     0.111;  3300.276;  26834.938; 0;  26631.223;  26834.938;  28332.436;  25032.160;114;   5.567;   4.327; 148.820; 159.927; 159.676; 173.361;   9.134; -10.084; -10.469;   5.743;   5.568;   4.010;  -3.737;  -0.975;;;;;;;;;;;;;;;;;;
2009-07-11T01:09:07.262Z;0;8.8370e+00;0;     0.110;  3290.812;  26896.258; 0;  26694.180;  26896.258;  28390.248;  25099.438;114;   5.568;   4.388; 148.881; 159.988; 159.737; 173.424;   9.135; -10.071; -10.456;   5.743;   5.569;   4.011;  -3.737;  -0.973;;;;;;;;;;;;;;;;;;
2009-07-11T01:09:23.262Z;0;8.8290e+00;0;     0.114;  3290.812;  26885.443; 0;  26683.283;  26885.443;  28379.373;  25088.561;114;   5.568;   4.511; 149.002; 160.111; 159.858; 173.549;   9.137; -10.045; -10.430;   5.743;   5.569;   4.014;  -3.736;  -0.971;;;;;;;;;;;;;;;;;;
2009-07-11T01:09:31.261Z;0;8.8380e+00;0;     0.112;  3290.812;  26899.238; 0;  26697.184;  26899.238;  28393.246;  25102.434;114;   5.569;   4.572; 149.063; 160.173; 159.919; 173.612;   9.138; -10.032; -10.417;   5.743;   5.570;   4.015;  -3.735;  -0.970;;;;;;;;;;;;;;;;;;
2009-07-11T01:09:39.261Z;0;8.7850e+00;0;     0.101;  3290.812;  26818.521; 0;  26615.854;  26818.521;  28312.070;  25021.260;114;   5.569;   4.634; 149.124; 160.234; 159.980; 173.675;   9.139; -10.020; -10.404;   5.743;   5.570;   4.016;  -3.734;  -0.969;;;;;;;;;;;;;;;;;;
2009-07-11T01:09:47.261Z;0;8.8670e+00;0;     0.116;  3290.812;  26941.885; 0;  26740.152;  26941.885;  28436.133;  25145.322;114;   5.569;   4.695; 149.185; 160.296; 160.041; 173.738;   9.140; -10.007; -10.392;   5.743;   5.571;   4.017;  -3.734;  -0.968;;;;;;;;;;;;;;;;;;
2009-07-11T01:09:55.261Z;0;8.7980e+00;0;     0.117;  3290.812;  26838.246; 0;  26635.729;  26838.246;  28331.908;  25041.096;114;   5.570;   4.756; 149.245; 160.357; 160.102; 173.801;   9.141;  -9.994; -10.379;   5.743;   5.571;   4.019;  -3.733;  -0.966;;;;;;;;;;;;;;;;;;
2009-07-11T01:10:03.261Z;0;8.9020e+00;0;     0.117;  3281.348;  26992.840; 0;  26792.650;  26992.840;  28483.512;  25202.164;114;   5.570;   4.818; 149.306; 160.419; 160.163; 173.863;   9.141;  -9.981; -10.366;   5.743;   5.571;   4.020;  -3.733;  -0.965;;;;;;;;;;;;;;;;;;
2009-07-11T01:10:11.261Z;0;9.0410e+00;0;     0.122;  3281.348;  27200.016; 0;  27001.363;  27200.016;  28691.838;  25410.488;114;   5.571;   4.879; 149.367; 160.480; 160.224; 173.925;   9.142;  -9.968; -10.353;   5.743;   5.572;   4.021;  -3.732;  -0.964;;;;;;;;;;;;;;;;;;
2009-07-11T01:10:19.261Z;0;9.4460e+00;0;     0.141;  3281.348;  27794.246; 0;  27599.871;  27794.246;  29289.268;  26007.918;114;   5.571;   4.940; 149.428; 160.541; 160.285; 173.987;   9.143;  -9.955; -10.340;   5.743;   5.572;   4.023;  -3.732;  -0.963;;;;;;;;;;;;;;;;;;
2009-07-11T01:10:27.261Z;0;8.9520e+00;0;     0.120;  3281.348;  27067.783; 0;  26868.152;  27067.783;  28558.873;  25277.525;114;   5.571;   5.002; 149.489; 160.603; 160.346; 174.048;   9.144;  -9.942; -10.327;   5.742;   5.572;   4.024;  -3.731;  -0.962;;;;;;;;;;;;;;;;;;
2009-07-11T01:10:35.261Z;0;9.3200e+00;0;     0.128;  3281.348;  27609.990; 0;  27414.309;  27609.990;  29104.033;  25822.686;114;   5.572;   5.063; 149.549; 160.664; 160.407; 174.110;   9.145;  -9.929; -10.314;   5.742;   5.573;   4.025;  -3.730;  -0.961;;;;;;;;;;;;;;;;;;
2009-07-11T01:10:43.261Z;0;9.4420e+00;0;     0.123;  3281.348;  27787.857; 0;  27593.438;  27787.857;  29282.844;  26001.496;114;   5.572;   5.125; 149.610; 160.726; 160.468; 174.171;   9.146;  -9.916; -10.301;   5.742;   5.573;   4.027;  -3.730;  -0.959;;;;;;;;;;;;;;;;;;
2009-07-11T01:10:51.261Z;0;9.3860e+00;0;     0.139;  3281.348;  27706.504; 0;  27511.508;  27706.504;  29201.061;  25919.713;114;   5.572;   5.186; 149.671; 160.787; 160.529; 174.233;   9.147;  -9.903; -10.288;   5.742;   5.573;   4.028;  -3.729;  -0.958;;;;;;;;;;;;;;;;;;
2009-07-11T01:10:59.261Z;0;9.3140e+00;0;     0.127;  3281.348;  27601.436; 0;  27405.693;  27601.436;  29095.434;  25814.086;114;   5.573;   5.247; 149.732; 160.849; 160.590; 174.294;   9.148;  -9.890; -10.275;   5.742;   5.574;   4.029;  -3.729;  -0.957;;;;;;;;;;;;;;;;;;
2009-07-11T01:11:07.261Z;0;9.5410e+00;0;     0.118;  3271.604;  27930.088; 0;  27737.816;  27930.088;  29421.811;  26150.207;114;   5.573;   5.309; 149.793; 160.910; 160.651; 174.356;   9.149;  -9.878; -10.262;   5.742;   5.574;   4.031;  -3.728;  -0.956;;;;;;;;;;;;;;;;;;
2009-07-11T01:11:15.261Z;0;9.5410e+00;0;     0.115;  3271.604;  27930.475; 0;  27738.205;  27930.475;  29422.199;  26150.596;114;   5.574;   5.370; 149.853; 160.972; 160.712; 174.417;   9.150;  -9.865; -10.249;   5.742;   5.574;   4.032;  -3.728;  -0.955;;;;;;;;;;;;;;;;;;
2009-07-11T01:11:23.261Z;0;9.5000e+00;0;     0.122;  3271.604;  27870.730; 0;  27678.045;  27870.730;  29362.145;  26090.541;114;   5.574;   5.431; 149.914; 161.033; 160.773; 174.479;   9.151;  -9.852; -10.237;   5.742;   5.575;   4.033;  -3.727;  -0.953;;;;;;;;;;;;;;;;;;
2009-07-11T01:11:31.261Z;0;9.5080e+00;0;     0.110;  3271.604;  27882.385; 0;  27689.781;  27882.385;  29373.859;  26102.256;114;   5.574;   5.493; 149.975; 161.095; 160.834; 174.540;   9.151;  -9.839; -10.224;   5.742;   5.575;   4.035;  -3.726;  -0.952;;;;;;;;;;;;;;;;;;
2009-07-11T01:11:39.261Z;0;9.6480e+00;0;     0.109;  3271.604;  28084.113; 0;  27892.902;  28084.113;  29576.631;  26305.025;114;   5.575;   5.554; 150.036; 161.156; 160.895; 174.602;   9.152;  -9.826; -10.211;   5.742;   5.576;   4.036;  -3.726;  -0.951;;;;;;;;;;;;;;;;;;
2009-07-11T01:11:47.261Z;0;9.5360e+00;0;     0.114;  3271.604;  27922.486; 0;  27730.162;  27922.486;  29414.170;  26142.564;114;   5.575;   5.615; 150.097; 161.218; 160.956; 174.663;   9.153;  -9.813; -10.198;   5.742;   5.576;   4.037;  -3.725;  -0.950;;;;;;;;;;;;;;;;;;
2009-07-11T01:11:55.260Z;0;9.6590e+00;0;     0.105;  3271.604;  28100.488; 0;  27909.391;  28100.488;  29593.090;  26321.484;114;   5.575;   5.677; 150.158; 161.279; 161.017; 174.724;   9.154;  -9.800; -10.185;   5.742;   5.576;   4.039;  -3.725;  -0.949;;;;;;;;;;;;;;;;;;
2009-07-11T01:12:03.260Z;0;9.7200e+00;0;     0.117;  3262.028;  28186.236; 0;  27996.840;  28186.236;  29675.324;  26413.295;114;   5.576;   5.738; 150.218; 161.341; 161.078; 174.786;   9.155;  -9.787; -10.172;   5.742;   5.577;   4.040;  -3.724;  -0.948;;;;;;;;;;;;;;;;;;
2009-07-11T01:12:11.260Z;0;9.7100e+00;0;     0.103;  3262.028;  28172.580; 0;  27983.092;  28172.580;  29661.598;  26399.570;114;   5.576;   5.800; 150.279; 161.402; 161.139; 174.847;   9.156;  -9.774; -10.159;   5.742;   5.577;   4.041;  -3.724;  -0.946;;;;;;;;;;;;;;;;;;
2009-07-11T01:12:19.260Z;0;9.7360e+00;0;     0.108;  3262.028;  28208.598; 0;  28019.354;  28208.598;  29697.799;  26435.770;114;   5.576;   5.861; 150.340; 161.464; 161.200; 174.909;   9.157;  -9.761; -10.146;   5.742;   5.577;   4.042;  -3.723;  -0.945;;;;;;;;;;;;;;;;;;
2009-07-11T01:12:27.260Z;0;9.7130e+00;0;     0.110;  3262.028;  28176.529; 0;  27987.068;  28176.529;  29665.566;  26403.539;114;   5.577;   5.922; 150.401; 161.525; 161.261; 174.970;   9.158;  -9.749; -10.133;   5.741;   5.578;   4.044;  -3.722;  -0.944;;;;;;;;;;;;;;;;;;
2009-07-11T01:12:35.260Z;0;9.8180e+00;0;     0.113;  3262.028;  28325.402; 0;  28136.943;  28325.402;  29815.189;  26553.162;114;   5.577;   5.984; 150.462; 161.587; 161.322; 175.031;   9.159;  -9.736; -10.120;   5.741;   5.578;   4.045;  -3.722;  -0.943;;;;;;;;;;;;;;;;;;
2009-07-11T01:12:43.260Z;0;9.7350e+00;0;     0.105;  3262.028;  28208.123; 0;  28018.875;  28208.123;  29697.320;  26435.293;114;   5.578;   6.045; 150.523; 161.648; 161.383; 175.093;   9.160;  -9.723; -10.108;   5.741;   5.578;   4.046;  -3.721;  -0.942;;;;;;;;;;;;;;;;;;
2009-07-11T01:12:51.260Z;0;9.8120e+00;0;     0.114;  3262.028;  28317.324; 0;  28128.811;  28317.324;  29807.072;  26545.043;114;   5.578;   6.107; 150.583; 161.710; 161.444; 175.154;   9.161;  -9.710; -10.095;   5.741;   5.579;   4.048;  -3.721;  -0.941;;;;;;;;;;;;;;;;;;
2009-07-11T01:12:59.260Z;0;9.8460e+00;0;     0.114;  3262.028;  28365.283; 0;  28177.092;  28365.283;  29855.271;  26593.242;114;   5.578;   6.168; 150.644; 161.772; 161.505; 175.215;   9.161;  -9.697; -10.082;   5.741;   5.579;   4.049;  -3.720;  -0.939;;;;;;;;;;;;;;;;;;